Time,TemperatureF,DewpointF,PressureIn,WindDirection,WindDirectionDegrees,WindSpeedMPH,WindSpeedGustMPH,Humidity,HourlyPrecipIn,Conditions,Clouds,dailyrainin,SoftwareType,DateUTC
2013-02-01 03:17:00,14.7,-1.3,29.76,North,-999,0.0,0.0,48,0.00,,,-99.99,FreeWX 2.04,2013-02-01 08:17:00,
2013-02-01 03:23:00,14.9,-0.8,29.76,North,-999,0.0,0.0,49,0.00,,,-99.99,FreeWX 2.04,2013-02-01 08:23:00,
2013-02-01 03:28:00,14.9,-1.1,29.76,North,-999,0.0,0.0,48,0.00,,,-99.99,FreeWX 2.04,2013-02-01 08:28:00,
2013-02-01 03:33:00,14.9,-1.1,29.76,North,-999,0.0,0.0,48,0.00,,,-99.99,FreeWX 2.04,2013-02-01 08:33:00,
2013-02-01 03:38:00,14.9,-0.8,29.76,North,-999,0.0,0.0,49,0.00,,,-99.99,FreeWX 2.04,2013-02-01 08:38:00,
2013-02-01 03:43:00,14.9,-0.8,29.76,North,-999,0.0,0.0,49,0.00,,,-99.99,FreeWX 2.04,2013-02-01 08:43:00,
2013-02-01 03:48:00,14.7,-0.9,29.76,North,-999,0.0,0.0,49,0.00,,,-99.99,FreeWX 2.04,2013-02-01 08:48:00,
2013-02-01 03:53:00,14.7,-0.9,29.76,North,-999,0.0,0.0,49,0.00,,,-99.99,FreeWX 2.04,2013-02-01 08:53:00,
2013-02-01 03:58:00,14.5,-1.1,29.76,North,-999,0.0,0.0,49,0.00,,,-99.99,FreeWX 2.04,2013-02-01 08:58:00,
2013-02-01 04:03:00,14.4,-1.3,29.76,North,-999,0.0,0.0,49,0.00,,,-99.99,FreeWX 2.04,2013-02-01 09:03:00,
2013-02-01 04:08:00,14.4,-0.8,29.76,North,-999,0.0,0.0,50,0.00,,,-99.99,FreeWX 2.04,2013-02-01 09:08:00,
2013-02-01 04:13:00,14.4,-0.8,29.76,North,-999,0.0,0.0,50,0.00,,,-99.99,FreeWX 2.04,2013-02-01 09:13:00,
2013-02-01 04:18:00,14.0,-1.1,29.79,North,-999,0.0,0.0,50,0.00,,,-99.99,FreeWX 2.04,2013-02-01 09:18:00,
2013-02-01 04:23:00,13.5,-99.9,29.79,North,-999,0.0,0.0,-999,0.00,,,-99.99,FreeWX 2.04,2013-02-01 09:23:00,
2013-02-01 04:28:00,13.1,-99.9,29.79,North,-999,0.0,0.0,-999,0.00,,,-99.99,FreeWX 2.04,2013-02-01 09:28:00,
2013-02-01 07:28:00,12.6,-99.9,29.88,North,-999,0.0,0.0,-999,0.00,,,-99.99,FreeWX 2.04,2013-02-01 12:28:00,
2013-02-01 07:33:00,12.6,-99.9,29.88,North,-999,0.0,0.0,-999,0.00,,,-99.99,FreeWX 2.04,2013-02-01 12:33:00,
2013-02-01 07:38:00,12.4,-99.9,29.88,North,-999,0.0,0.0,-999,0.00,,,-99.99,FreeWX 2.04,2013-02-01 12:38:00,
2013-02-01 07:43:00,12.4,-99.9,29.88,North,-999,0.0,0.0,-999,0.00,,,-99.99,FreeWX 2.04,2013-02-01 12:43:00,
2013-02-01 07:48:00,12.4,-99.9,29.91,North,-999,0.0,0.0,-999,0.00,,,-99.99,FreeWX 2.04,2013-02-01 12:48:00,
2013-02-01 07:53:00,12.6,-99.9,29.91,North,-999,0.0,0.0,-999,0.00,,,-99.99,FreeWX 2.04,2013-02-01 12:53:00,
2013-02-01 07:58:00,12.6,-99.9,29.91,North,-999,0.0,0.0,-999,0.00,,,-99.99,FreeWX 2.04,2013-02-01 12:58:00,
2013-02-01 08:03:00,12.6,-99.9,29.91,North,-999,0.0,0.0,-999,0.00,,,-99.99,FreeWX 2.04,2013-02-01 13:03:00,
2013-02-01 08:08:00,12.6,-99.9,29.91,North,-999,0.0,0.0,-999,0.00,,,-99.99,FreeWX 2.04,2013-02-01 13:08:00,
2013-02-01 08:13:00,12.6,-99.9,29.91,North,-999,0.0,0.0,-999,0.00,,,-99.99,FreeWX 2.04,2013-02-01 13:13:00,
2013-02-01 08:18:00,12.7,-99.9,29.91,North,-999,0.0,0.0,-999,0.00,,,-99.99,FreeWX 2.04,2013-02-01 13:18:00,
2013-02-01 08:23:00,12.7,-99.9,29.91,North,-999,0.0,0.0,-999,0.00,,,-99.99,FreeWX 2.04,2013-02-01 13:23:00,
2013-02-01 08:28:00,12.9,-99.9,29.91,North,-999,0.0,0.0,-999,0.00,,,-99.99,FreeWX 2.04,2013-02-01 13:28:00,
2013-02-01 08:33:00,13.1,-99.9,29.91,North,-999,0.0,0.0,-999,0.00,,,-99.99,FreeWX 2.04,2013-02-01 13:33:00,
2013-02-01 08:38:00,13.3,-99.9,29.91,North,-999,0.0,0.0,-999,0.00,,,-99.99,FreeWX 2.04,2013-02-01 13:38:00,
2013-02-01 08:43:00,13.5,-99.9,29.91,North,-999,0.0,0.0,-999,0.00,,,-99.99,FreeWX 2.04,2013-02-01 13:43:00,
2013-02-01 08:48:00,13.8,-99.9,29.94,North,-999,0.0,0.0,-999,0.00,,,-99.99,FreeWX 2.04,2013-02-01 13:48:00,
2013-02-01 08:53:00,14.2,-0.2,29.94,North,-999,0.0,0.0,52,0.00,,,-99.99,FreeWX 2.04,2013-02-01 13:53:00,
2013-02-01 08:58:00,14.7,0.3,29.94,North,-999,0.0,0.0,52,0.00,,,-99.99,FreeWX 2.04,2013-02-01 13:58:00,
2013-02-01 09:03:00,15.1,0.7,29.94,North,-999,0.0,0.0,52,0.00,,,-99.99,FreeWX 2.04,2013-02-01 14:03:00,
2013-02-01 09:08:00,15.1,0.3,29.94,North,-999,0.0,0.0,51,0.00,,,-99.99,FreeWX 2.04,2013-02-01 14:08:00,
2013-02-01 09:13:00,15.6,0.7,29.94,North,-999,0.0,0.0,51,0.00,,,-99.99,FreeWX 2.04,2013-02-01 14:13:00,
2013-02-01 09:18:00,15.8,0.9,29.94,North,-999,0.0,0.0,51,0.00,,,-99.99,FreeWX 2.04,2013-02-01 14:18:00,
2013-02-01 09:23:00,16.3,1.4,29.94,North,-999,0.0,0.0,51,0.00,,,-99.99,FreeWX 2.04,2013-02-01 14:23:00,
2013-02-01 09:28:00,17.1,2.1,29.94,North,-999,0.0,0.0,51,0.00,,,-99.99,FreeWX 2.04,2013-02-01 14:28:00,
2013-02-01 09:33:00,17.4,1.9,29.94,North,-999,0.0,0.0,50,0.00,,,-99.99,FreeWX 2.04,2013-02-01 14:33:00,
2013-02-01 09:38:00,17.4,1.6,29.94,North,-999,0.0,0.0,49,0.00,,,-99.99,FreeWX 2.04,2013-02-01 14:38:00,
2013-02-01 09:43:00,17.6,1.2,29.94,North,-999,0.0,0.0,48,0.00,,,-99.99,FreeWX 2.04,2013-02-01 14:43:00,
2013-02-01 09:48:00,18.0,1.6,29.94,North,-999,0.0,0.0,48,0.00,,,-99.99,FreeWX 2.04,2013-02-01 14:48:00,
2013-02-01 09:53:00,18.5,2.1,29.94,North,-999,0.0,0.0,48,0.00,,,-99.99,FreeWX 2.04,2013-02-01 14:53:00,
2013-02-01 09:58:00,18.7,1.8,29.94,North,-999,0.0,0.0,47,0.00,,,-99.99,FreeWX 2.04,2013-02-01 14:58:00,
2013-02-01 10:03:00,18.9,1.9,29.94,North,-999,0.0,0.0,47,0.00,,,-99.99,FreeWX 2.04,2013-02-01 15:03:00,
2013-02-01 10:08:00,18.7,1.4,29.94,North,-999,0.0,0.0,46,0.00,,,-99.99,FreeWX 2.04,2013-02-01 15:08:00,
2013-02-01 10:13:00,18.1,0.5,29.94,North,-999,0.0,0.0,45,0.00,,,-99.99,FreeWX 2.04,2013-02-01 15:13:00,
2013-02-01 10:23:00,19.6,2.1,29.97,North,-999,0.0,0.0,46,0.00,,,-99.99,FreeWX 2.04,2013-02-01 15:23:00,
2013-02-01 10:28:00,19.9,2.1,29.97,North,-999,0.0,0.0,45,0.00,,,-99.99,FreeWX 2.04,2013-02-01 15:28:00,
2013-02-01 10:33:00,19.8,1.4,29.97,North,-999,0.0,0.0,44,0.00,,,-99.99,FreeWX 2.04,2013-02-01 15:33:00,
2013-02-01 10:38:00,20.1,2.3,29.97,North,-999,0.0,0.0,45,0.00,,,-99.99,FreeWX 2.04,2013-02-01 15:38:00,
2013-02-01 10:48:00,20.5,1.6,29.97,North,-999,0.0,5.4,43,0.00,,,-99.99,FreeWX 2.04,2013-02-01 15:48:00,
2013-02-01 10:53:00,21.4,2.8,29.97,North,-999,0.0,4.9,44,0.00,,,-99.99,FreeWX 2.04,2013-02-01 15:53:00,
2013-02-01 10:58:00,21.6,2.5,29.97,North,-999,0.0,3.1,43,0.00,,,-99.99,FreeWX 2.04,2013-02-01 15:58:00,
2013-02-01 11:03:00,21.6,2.5,29.97,North,-999,0.0,0.0,43,0.00,,,-99.99,FreeWX 2.04,2013-02-01 16:03:00,
2013-02-01 11:08:00,21.6,2.1,29.97,North,-999,0.0,0.0,42,0.00,,,-99.99,FreeWX 2.04,2013-02-01 16:08:00,
2013-02-01 11:13:00,21.2,0.1,29.97,North,-999,0.0,0.0,39,0.00,,,-99.99,FreeWX 2.04,2013-02-01 16:13:00,
2013-02-01 11:18:00,20.8,-0.2,29.97,North,-999,0.0,0.0,39,0.00,,,-99.99,FreeWX 2.04,2013-02-01 16:18:00,
2013-02-01 11:23:00,20.5,-0.6,29.97,North,-999,0.0,0.0,39,0.00,,,-99.99,FreeWX 2.04,2013-02-01 16:23:00,
2013-02-01 11:28:00,20.7,0.1,29.97,North,-999,0.0,0.0,40,0.00,,,-99.99,FreeWX 2.04,2013-02-01 16:28:00,
2013-02-01 11:33:00,20.7,0.1,29.97,North,-999,0.0,0.0,40,0.00,,,-99.99,FreeWX 2.04,2013-02-01 16:33:00,
2013-02-01 11:38:00,20.8,-0.2,29.97,North,-999,0.0,0.0,39,0.00,,,-99.99,FreeWX 2.04,2013-02-01 16:38:00,
2013-02-01 11:43:00,20.7,-0.4,29.97,North,-999,0.0,0.0,39,0.00,,,-99.99,FreeWX 2.04,2013-02-01 16:43:00,
2013-02-01 11:48:00,20.7,-1.5,29.97,North,-999,0.0,4.9,37,0.00,,,-99.99,FreeWX 2.04,2013-02-01 16:48:00,
2013-02-01 11:53:00,20.7,-2.0,29.97,North,-999,0.0,4.9,36,0.00,,,-99.99,FreeWX 2.04,2013-02-01 16:53:00,
2013-02-01 11:58:00,20.5,-3.5,29.97,North,-999,0.0,4.0,34,0.00,,,-99.99,FreeWX 2.04,2013-02-01 16:58:00,
2013-02-01 12:13:00,21.2,-3.3,29.97,NW,304,1.0,5.8,33,0.00,,,-99.99,FreeWX 2.04,2013-02-01 17:13:00,
2013-02-01 12:18:00,21.6,-3.6,29.97,WNW,286,1.0,6.9,32,0.00,,,-99.99,FreeWX 2.04,2013-02-01 17:18:00,
2013-02-01 12:23:00,20.8,-4.4,29.97,WNW,291,1.0,8.3,32,0.00,,,-99.99,FreeWX 2.04,2013-02-01 17:23:00,
2013-02-01 12:28:00,20.5,-4.7,29.97,North,-999,0.0,4.9,32,0.00,,,-99.99,FreeWX 2.04,2013-02-01 17:28:00,
2013-02-01 12:33:00,21.4,-3.3,29.97,North,-999,0.0,0.0,33,0.00,,,-99.99,FreeWX 2.04,2013-02-01 17:33:00,
2013-02-01 12:38:00,22.1,-2.6,29.97,North,-999,0.0,0.0,33,0.00,,,-99.99,FreeWX 2.04,2013-02-01 17:38:00,
2013-02-01 12:43:00,22.6,-2.0,29.97,North,-999,0.0,6.3,33,0.00,,,-99.99,FreeWX 2.04,2013-02-01 17:43:00,
2013-02-01 12:48:00,22.6,-99.9,29.97,North,-999,0.0,6.7,-999,0.00,,,-99.99,FreeWX 2.04,2013-02-01 17:48:00,
2013-02-01 12:53:00,22.5,-2.9,29.97,North,-999,0.0,5.4,32,0.00,,,-99.99,FreeWX 2.04,2013-02-01 17:53:00,
2013-02-01 12:58:00,22.5,-4.2,29.97,North,-999,0.0,8.3,30,0.00,,,-99.99,FreeWX 2.04,2013-02-01 17:58:00,
2013-02-01 13:03:00,22.8,-4.0,29.97,North,-999,0.0,5.8,30,0.00,,,-99.99,FreeWX 2.04,2013-02-01 18:03:00,
2013-02-01 13:08:00,23.7,-5.3,29.97,North,-999,0.0,6.7,27,0.00,,,-99.99,FreeWX 2.04,2013-02-01 18:08:00,
2013-02-01 13:13:00,23.5,-5.4,29.97,North,-999,0.0,5.4,27,0.00,,,-99.99,FreeWX 2.04,2013-02-01 18:13:00,
2013-02-01 13:18:00,23.0,-6.0,29.97,West,269,1.0,7.8,27,0.00,,,-99.99,FreeWX 2.04,2013-02-01 18:18:00,
2013-02-01 13:23:00,22.8,-6.2,29.97,West,274,1.0,5.8,27,0.00,,,-99.99,FreeWX 2.04,2013-02-01 18:23:00,
2013-02-01 13:28:00,23.2,-5.8,29.97,West,273,1.0,7.8,27,0.00,,,-99.99,FreeWX 2.04,2013-02-01 18:28:00,
2013-02-01 13:39:00,23.2,-3.6,29.97,North,-999,0.0,5.4,30,0.00,,,-99.99,FreeWX 2.04,2013-02-01 18:39:00,
2013-02-01 13:44:00,22.3,-99.9,29.97,North,-999,0.0,7.8,-999,0.00,,,-99.99,FreeWX 2.04,2013-02-01 18:44:00,
2013-02-01 13:49:00,21.9,-4.7,29.97,West,280,1.0,7.8,30,0.00,,,-99.99,FreeWX 2.04,2013-02-01 18:49:00,
2013-02-01 13:54:00,21.6,-5.1,29.97,WNW,283,1.0,5.8,30,0.00,,,-99.99,FreeWX 2.04,2013-02-01 18:54:00,
2013-02-01 13:59:00,21.7,-3.5,29.97,North,-999,0.0,8.3,32,0.00,,,-99.99,FreeWX 2.04,2013-02-01 18:59:00,
2013-02-01 14:04:00,21.9,-4.7,29.97,North,-999,0.0,7.4,30,0.00,,,-99.99,FreeWX 2.04,2013-02-01 19:04:00,
2013-02-01 14:09:00,22.1,-4.5,29.97,WNW,287,1.0,6.7,30,0.00,,,-99.99,FreeWX 2.04,2013-02-01 19:09:00,
2013-02-01 14:14:00,21.9,-4.7,29.97,WNW,297,1.0,4.9,30,0.00,,,-99.99,FreeWX 2.04,2013-02-01 19:14:00,
2013-02-01 14:19:00,22.3,-99.9,29.97,North,-999,0.0,6.7,-999,0.00,,,-99.99,FreeWX 2.04,2013-02-01 19:19:00,
2013-02-01 14:24:00,22.8,-4.0,29.97,North,-999,0.0,0.0,30,0.00,,,-99.99,FreeWX 2.04,2013-02-01 19:24:00,
2013-02-01 14:29:00,22.6,-4.0,29.97,North,-999,0.0,4.9,30,0.00,,,-99.99,FreeWX 2.04,2013-02-01 19:29:00,
2013-02-01 14:34:00,22.5,-6.3,29.97,North,-999,0.0,7.8,27,0.00,,,-99.99,FreeWX 2.04,2013-02-01 19:34:00,
2013-02-01 14:39:00,22.1,-6.7,29.97,West,268,1.0,7.4,27,0.00,,,-99.99,FreeWX 2.04,2013-02-01 19:39:00,
2013-02-01 14:44:00,22.1,-6.7,29.97,West,271,1.0,6.7,27,0.00,,,-99.99,FreeWX 2.04,2013-02-01 19:44:00,
2013-02-01 14:49:00,21.9,-6.9,29.97,West,265,2.0,9.2,27,0.00,,,-99.99,FreeWX 2.04,2013-02-01 19:49:00,
2013-02-01 14:54:00,21.6,-7.2,29.97,West,270,2.0,9.2,27,0.00,,,-99.99,FreeWX 2.04,2013-02-01 19:54:00,
2013-02-01 14:59:00,22.1,-6.7,29.97,West,267,1.0,4.0,27,0.00,,,-99.99,FreeWX 2.04,2013-02-01 19:59:00,
2013-02-01 15:04:00,22.3,-6.5,29.97,North,-999,0.0,0.0,27,0.00,,,-99.99,FreeWX 2.04,2013-02-01 20:04:00,
2013-02-01 15:09:00,22.1,-6.7,29.97,North,-999,0.0,7.8,27,0.00,,,-99.99,FreeWX 2.04,2013-02-01 20:09:00,
2013-02-01 15:14:00,21.6,-7.2,29.97,West,275,1.0,6.3,27,0.00,,,-99.99,FreeWX 2.04,2013-02-01 20:14:00,
2013-02-01 15:19:00,21.2,-7.4,29.97,West,273,1.0,6.9,27,0.00,,,-99.99,FreeWX 2.04,2013-02-01 20:19:00,
2013-02-01 15:24:00,21.2,-7.4,29.97,West,270,2.0,7.8,27,0.00,,,-99.99,FreeWX 2.04,2013-02-01 20:24:00,
2013-02-01 15:29:00,21.4,-7.4,29.97,West,269,1.0,5.8,27,0.00,,,-99.99,FreeWX 2.04,2013-02-01 20:29:00,
2013-02-01 15:34:00,21.6,-7.2,30.00,North,-999,0.0,7.4,27,0.00,,,-99.99,FreeWX 2.04,2013-02-01 20:34:00,
2013-02-01 15:39:00,21.4,-7.4,30.00,North,-999,0.0,7.4,27,0.00,,,-99.99,FreeWX 2.04,2013-02-01 20:39:00,
2013-02-01 15:44:00,21.0,-7.6,30.00,West,279,1.0,9.2,27,0.00,,,-99.99,FreeWX 2.04,2013-02-01 20:44:00,
2013-02-01 15:49:00,20.8,-7.8,30.00,West,280,1.0,6.7,27,0.00,,,-99.99,FreeWX 2.04,2013-02-01 20:49:00,
2013-02-01 15:54:00,20.7,-8.0,30.00,North,-999,0.0,5.8,27,0.00,,,-99.99,FreeWX 2.04,2013-02-01 20:54:00,
2013-02-01 15:59:00,20.5,-8.1,30.00,North,-999,0.0,8.7,27,0.00,,,-99.99,FreeWX 2.04,2013-02-01 20:59:00,
2013-02-01 16:04:00,20.3,-8.3,30.00,North,-999,0.0,3.6,27,0.00,,,-99.99,FreeWX 2.04,2013-02-01 21:04:00,
2013-02-01 16:09:00,20.3,-8.3,30.00,North,-999,0.0,6.7,27,0.00,,,-99.99,FreeWX 2.04,2013-02-01 21:09:00,
2013-02-01 16:14:00,20.1,-7.8,30.00,North,-999,0.0,5.8,28,0.00,,,-99.99,FreeWX 2.04,2013-02-01 21:14:00,
2013-02-01 16:19:00,20.1,-7.8,30.00,North,-999,0.0,4.0,28,0.00,,,-99.99,FreeWX 2.04,2013-02-01 21:19:00,
2013-02-01 16:24:00,19.8,-8.0,30.00,West,271,1.0,6.9,28,0.00,,,-99.99,FreeWX 2.04,2013-02-01 21:24:00,
2013-02-01 16:29:00,19.4,-8.3,30.00,West,271,1.0,8.7,28,0.00,,,-99.99,FreeWX 2.04,2013-02-01 21:29:00,
2013-02-01 16:34:00,19.2,-8.5,30.00,West,273,1.0,4.9,28,0.00,,,-99.99,FreeWX 2.04,2013-02-01 21:34:00,
2013-02-01 16:39:00,18.7,-9.0,30.00,WNW,288,1.0,7.8,28,0.00,,,-99.99,FreeWX 2.04,2013-02-01 21:39:00,
2013-02-01 16:44:00,18.1,-9.4,30.00,WNW,297,1.0,7.4,28,0.00,,,-99.99,FreeWX 2.04,2013-02-01 21:44:00,
2013-02-01 16:49:00,18.1,-9.4,30.00,WNW,292,1.0,4.5,28,0.00,,,-99.99,FreeWX 2.04,2013-02-01 21:49:00,
2013-02-01 16:54:00,18.0,-9.6,30.00,North,-999,0.0,4.9,28,0.00,,,-99.99,FreeWX 2.04,2013-02-01 21:54:00,
2013-02-01 16:59:00,17.4,-10.1,30.00,North,-999,0.0,5.8,28,0.00,,,-99.99,FreeWX 2.04,2013-02-01 21:59:00,
2013-02-01 17:04:00,17.4,-10.1,30.00,North,-999,0.0,5.4,28,0.00,,,-99.99,FreeWX 2.04,2013-02-01 22:04:00,
2013-02-01 17:09:00,17.4,-10.1,30.00,North,-999,0.0,4.5,28,0.00,,,-99.99,FreeWX 2.04,2013-02-01 22:09:00,
2013-02-01 17:14:00,17.6,-9.9,30.00,North,-999,0.0,0.0,28,0.00,,,-99.99,FreeWX 2.04,2013-02-01 22:14:00,
2013-02-01 17:19:00,17.4,-10.1,30.00,North,-999,0.0,0.0,28,0.00,,,-99.99,FreeWX 2.04,2013-02-01 22:19:00,
2013-02-01 17:24:00,17.4,-10.1,30.00,North,-999,0.0,0.0,28,0.00,,,-99.99,FreeWX 2.04,2013-02-01 22:24:00,
2013-02-01 17:29:00,17.4,-10.1,30.00,North,-999,0.0,4.9,28,0.00,,,-99.99,FreeWX 2.04,2013-02-01 22:29:00,
2013-02-01 17:34:00,17.2,-10.1,30.00,North,-999,0.0,0.0,28,0.00,,,-99.99,FreeWX 2.04,2013-02-01 22:34:00,
2013-02-01 17:39:00,17.1,-8.3,30.00,North,-999,0.0,0.0,31,0.00,,,-99.99,FreeWX 2.04,2013-02-01 22:39:00,
2013-02-01 17:44:00,16.9,-8.5,30.00,North,-999,0.0,3.1,31,0.00,,,-99.99,FreeWX 2.04,2013-02-01 22:44:00,
2013-02-01 17:49:00,16.9,-8.5,30.00,North,-999,0.0,0.0,31,0.00,,,-99.99,FreeWX 2.04,2013-02-01 22:49:00,
2013-02-01 17:54:00,16.7,-8.7,30.00,North,-999,0.0,7.4,31,0.00,,,-99.99,FreeWX 2.04,2013-02-01 22:54:00,
2013-02-01 17:59:00,16.9,-8.5,30.00,North,-999,0.0,4.0,31,0.00,,,-99.99,FreeWX 2.04,2013-02-01 22:59:00,
2013-02-01 18:04:00,16.9,-8.5,30.00,North,-999,0.0,5.4,31,0.00,,,-99.99,FreeWX 2.04,2013-02-01 23:04:00,
2013-02-01 18:09:00,16.9,-7.2,30.00,North,-999,0.0,4.5,33,0.00,,,-99.99,FreeWX 2.04,2013-02-01 23:09:00,
2013-02-01 18:14:00,16.7,-7.4,30.00,North,-999,0.0,2.7,33,0.00,,,-99.99,FreeWX 2.04,2013-02-01 23:14:00,
2013-02-01 18:19:00,16.7,-6.7,30.00,West,280,1.0,9.2,34,0.00,,,-99.99,FreeWX 2.04,2013-02-01 23:19:00,
2013-02-01 18:24:00,16.5,-6.9,30.00,West,280,1.0,6.3,34,0.00,,,-99.99,FreeWX 2.04,2013-02-01 23:24:00,
2013-02-01 18:29:00,16.3,-7.1,30.00,WNW,285,1.0,6.3,34,0.00,,,-99.99,FreeWX 2.04,2013-02-01 23:29:00,
2013-02-01 18:34:00,16.2,-7.2,30.00,North,-999,0.0,4.9,34,0.00,,,-99.99,FreeWX 2.04,2013-02-01 23:34:00,
2013-02-01 18:39:00,16.2,-7.2,30.00,North,-999,0.0,4.9,34,0.00,,,-99.99,FreeWX 2.04,2013-02-01 23:39:00,
2013-02-01 18:44:00,16.0,-7.4,30.00,North,-999,0.0,3.6,34,0.00,,,-99.99,FreeWX 2.04,2013-02-01 23:44:00,
2013-02-01 18:49:00,16.0,-7.4,30.00,North,-999,0.0,5.8,34,0.00,,,-99.99,FreeWX 2.04,2013-02-01 23:49:00,
2013-02-01 18:54:00,16.0,-7.4,30.00,North,-999,0.0,4.0,34,0.00,,,-99.99,FreeWX 2.04,2013-02-01 23:54:00,
2013-02-01 18:59:00,16.0,-7.4,30.00,North,-999,0.0,0.0,34,0.00,,,-99.99,FreeWX 2.04,2013-02-01 23:59:00,
2013-02-01 19:04:00,16.0,-7.4,30.03,North,-999,0.0,8.7,34,0.00,,,-99.99,FreeWX 2.04,2013-02-02 00:04:00,
2013-02-01 19:09:00,15.8,-7.6,30.03,West,268,1.0,8.7,34,0.00,,,-99.99,FreeWX 2.04,2013-02-02 00:09:00,
2013-02-01 19:14:00,15.6,-7.8,30.03,North,-999,0.0,7.8,34,0.00,,,-99.99,FreeWX 2.04,2013-02-02 00:14:00,
2013-02-01 19:19:00,15.6,-7.8,30.00,North,-999,0.0,3.1,34,0.00,,,-99.99,FreeWX 2.04,2013-02-02 00:19:00,
2013-02-01 19:24:00,15.6,-7.8,30.00,North,-999,0.0,6.7,34,0.00,,,-99.99,FreeWX 2.04,2013-02-02 00:24:00,
2013-02-01 19:29:00,15.4,-7.8,30.00,North,-999,0.0,0.0,34,0.00,,,-99.99,FreeWX 2.04,2013-02-02 00:29:00,
2013-02-01 19:34:00,15.4,-7.2,30.03,North,-999,0.0,3.1,35,0.00,,,-99.99,FreeWX 2.04,2013-02-02 00:34:00,
2013-02-01 19:39:00,15.4,-7.2,30.03,North,-999,0.0,4.5,35,0.00,,,-99.99,FreeWX 2.04,2013-02-02 00:39:00,
2013-02-01 19:44:00,15.3,-7.4,30.03,North,-999,0.0,6.9,35,0.00,,,-99.99,FreeWX 2.04,2013-02-02 00:44:00,
2013-02-01 19:49:00,15.1,-7.6,30.03,North,-999,0.0,7.4,35,0.00,,,-99.99,FreeWX 2.04,2013-02-02 00:49:00,
2013-02-01 19:54:00,14.9,-7.8,30.03,North,-999,0.0,0.0,35,0.00,,,-99.99,FreeWX 2.04,2013-02-02 00:54:00,
2013-02-01 19:59:00,14.9,-7.8,30.03,North,-999,0.0,2.7,35,0.00,,,-99.99,FreeWX 2.04,2013-02-02 00:59:00,
2013-02-01 20:04:00,14.9,-7.8,30.03,North,-999,0.0,4.0,35,0.00,,,-99.99,FreeWX 2.04,2013-02-02 01:04:00,
2013-02-01 20:09:00,14.7,-8.0,30.03,North,-999,0.0,6.3,35,0.00,,,-99.99,FreeWX 2.04,2013-02-02 01:09:00,
2013-02-01 20:14:00,14.7,-8.0,30.03,North,-999,0.0,4.5,35,0.00,,,-99.99,FreeWX 2.04,2013-02-02 01:14:00,
2013-02-01 20:19:00,14.7,-8.0,30.03,North,-999,0.0,6.9,35,0.00,,,-99.99,FreeWX 2.04,2013-02-02 01:19:00,
2013-02-01 20:24:00,14.7,-8.0,30.03,North,-999,0.0,4.0,35,0.00,,,-99.99,FreeWX 2.04,2013-02-02 01:24:00,
2013-02-01 20:29:00,14.5,-8.1,30.03,North,-999,0.0,4.5,35,0.00,,,-99.99,FreeWX 2.04,2013-02-02 01:29:00,
2013-02-01 20:34:00,14.4,-8.3,30.03,North,-999,0.0,5.8,35,0.00,,,-99.99,FreeWX 2.04,2013-02-02 01:34:00,
2013-02-01 20:39:00,14.4,-8.3,30.03,North,-999,0.0,2.7,35,0.00,,,-99.99,FreeWX 2.04,2013-02-02 01:39:00,
2013-02-01 20:44:00,14.4,-8.3,30.03,North,-999,0.0,3.1,35,0.00,,,-99.99,FreeWX 2.04,2013-02-02 01:44:00,
2013-02-01 20:49:00,14.4,-8.3,30.03,North,-999,0.0,3.1,35,0.00,,,-99.99,FreeWX 2.04,2013-02-02 01:49:00,
2013-02-01 20:54:00,14.2,-7.8,30.03,North,-999,0.0,2.7,36,0.00,,,-99.99,FreeWX 2.04,2013-02-02 01:54:00,
2013-02-01 20:59:00,14.2,-7.2,30.03,North,-999,0.0,3.1,37,0.00,,,-99.99,FreeWX 2.04,2013-02-02 01:59:00,
2013-02-01 21:04:00,13.8,-99.9,30.03,North,-999,0.0,7.8,-999,0.00,,,-99.99,FreeWX 2.04,2013-02-02 02:04:00,
2013-02-01 21:09:00,13.6,-99.9,30.03,North,-999,0.0,5.8,-999,0.00,,,-99.99,FreeWX 2.04,2013-02-02 02:09:00,
2013-02-01 21:14:00,13.5,-99.9,30.03,North,-999,0.0,7.8,-999,0.00,,,-99.99,FreeWX 2.04,2013-02-02 02:14:00,
2013-02-01 21:19:00,13.3,-99.9,30.00,North,-999,0.0,7.4,-999,0.00,,,-99.99,FreeWX 2.04,2013-02-02 02:19:00,
2013-02-01 21:24:00,13.3,-99.9,30.00,WSW,255,1.0,7.4,-999,0.00,,,-99.99,FreeWX 2.04,2013-02-02 02:24:00,
2013-02-01 21:29:00,13.1,-99.9,30.00,WSW,258,1.0,7.8,-999,0.00,,,-99.99,FreeWX 2.04,2013-02-02 02:29:00,